DW2465 Weather Reports


time (UTC)temp
F
wind
direction
speed
knots
gust
knots
rain 1hr
in
rain 24hr
in
rain mn
in
humidity
%
barometer
mb
20260905201508 80 78 0.0 0.0 0.00 0.00 0.00 75 1013.7
20260905200005 78 43 0.0 0.0 0.00 0.00 0.00 78 1014.0
20260905194533 77 58 0.0 0.0 0.00 0.00 0.00 78 1014.3
20260905193034 77 59 0.0 0.0 0.00 0.00 0.00 80 1014.5
20260905191535 77 59 0.0 0.0 0.00 0.00 0.00 80 1014.5
20260905190027 77 56 0.0 0.0 0.00 0.00 0.00 79 1014.9
20260905184524 76 45 0.0 0.0 0.00 0.00 0.00 82 1015.1
20260905183019 75 344 0.0 0.0 0.00 0.00 0.00 84 1015.1
20260905181519 73 88 0.0 0.0 0.00 0.00 0.00 88 1015.4
20260905180008 72 105 0.0 0.0 0.00 0.00 0.00 90 1015.5
20260905174517 70 128 0.0 0.0 0.00 0.00 0.00 92 1015.5
20260905173002 70 128 0.0 0.0 0.00 0.00 0.00 93 1015.9
20260905171537 69 132 0.0 0.0 0.00 0.00 0.00 94 1015.9
20260905170029 69 110 0.0 0.0 0.00 0.00 0.00 95 1015.9
20260905164525 68 76 0.0 0.0 0.00 0.00 0.00 95 1016.0
20260905163030 68 67 0.0 0.0 0.00 0.00 0.00 95 1016.0
20260905161522 68 111 0.0 0.0 0.00 0.00 0.00 96 1016.1
20260905160020 67 32 0.0 0.0 0.00 0.00 0.00 96 1016.0
20260905154517 67 44 0.0 0.0 0.00 0.00 0.00 96 1015.8
20260905153016 66 34 0.0 0.0 0.00 0.00 0.00 96 1015.9
20260905151515 66 34 0.0 0.0 0.00 0.00 0.00 96 1015.9
20260905150014 66 34 0.0 0.0 0.00 0.00 0.00 96 1015.8
20260905144542 66 34 0.0 0.0 0.00 0.00 0.00 96 1015.4
20260905143043 66 42 0.0 0.0 0.00 0.00 0.00 96 1015.1
20260905141540 65 26 0.0 0.0 0.00 0.00 0.00 96 1015.1
20260905140038 65 15 0.0 0.0 0.00 0.00 0.00 96 1015.2
20260905134538 65 27 0.0 0.0 0.00 0.00 0.00 96 1015.2
20260905133037 65 40 0.0 0.0 0.00 0.00 0.00 96 1015.1
20260905131538 66 314 0.0 0.0 0.00 0.00 0.00 96 1015.3
20260905130032 66 37 0.0 0.0 0.00 0.00 0.00 96 1015.0
20260905124528 66 36 0.0 0.0 0.00 0.00 0.00 96 1014.4
20260905123035 66 80 0.0 0.0 0.00 0.00 0.00 96 1013.9
20260905121517 65 90 0.0 0.0 0.00 0.00 0.00 96 1013.9
20260905120022 65 62 0.0 0.0 0.00 0.00 0.00 96 1014.0
20260905114519 65 28 0.0 0.0 0.00 0.00 0.00 96 1014.1
20260905113015 65 55 0.0 0.0 0.00 0.00 0.00 96 1013.9
20260905111522 65 64 0.0 0.0 0.00 0.00 0.00 96 1013.8
20260905110019 65 71 0.0 0.0 0.00 0.00 0.00 95 1013.6
20260905104521 65 31 0.0 0.0 0.00 0.00 0.00 95 1013.7
20260905103021 64 18 0.0 0.0 0.00 0.00 0.00 95 1013.6
20260905101519 65 58 0.0 0.0 0.00 0.00 0.00 95 1013.5
20260905100021 65 24 0.0 0.0 0.00 0.00 0.00 95 1013.3
20260905094525 65 57 0.0 0.0 0.00 0.00 0.00 95 1013.0
20260905093017 65 350 0.0 0.0 0.00 0.00 0.00 95 1012.5
20260905091552 65 360 0.0 0.0 0.00 0.00 0.00 95 1012.6
20260905090046 65 21 0.0 0.0 0.00 0.00 0.00 95 1013.0
20260905084551 65 340 0.0 0.0 0.00 0.00 0.00 94 1013.4
20260905083036 65 9 0.0 0.0 0.00 0.00 0.00 95 1013.3
20260905081539 65 87 0.0 0.0 0.00 0.00 0.00 94 1013.1
20260905080035 65 46 0.0 0.0 0.00 0.00 0.00 94 1013.3
20260905074534 65 46 0.0 0.0 0.00 0.00 0.00 94 1013.3
20260905073003 65 41 0.0 0.0 0.00 0.00 0.00 94 1013.5
20260905071504 65 51 0.0 0.0 0.00 0.00 0.00 94 1013.4
20260905070100 65 31 0.0 0.0 0.00 0.00 0.00 94 1013.5
20260905064600 64 19 0.0 0.0 0.00 0.00 0.00 93 1013.6
20260905063100 64 14 0.0 0.0 0.00 0.00 0.00 93 1013.3
20260905061605 65 26 0.0 0.0 0.00 0.00 0.00 92 1013.1
20260905060104 65 11 0.0 0.0 0.00 0.00 0.00 91 1013.4
20260905054600 66 24 0.0 0.0 0.00 0.00 0.00 90 1013.3
20260905053048 67 25 0.0 0.0 0.00 0.00 0.00 90 1013.3
20260905051603 67 21 0.0 0.0 0.00 0.00 0.00 89 1013.0
20260905050041 67 20 0.0 0.0 0.00 0.00 0.00 88 1012.8
20260905044543 68 26 0.0 0.0 0.00 0.00 0.00 88 1012.6
20260905043040 68 360 0.0 0.0 0.00 0.00 0.00 87 1012.7
20260905041535 69 41 0.0 0.0 0.00 0.00 0.00 85 1012.8
20260905040031 70 28 0.0 0.0 0.00 0.00 0.00 85 1012.9
20260905034529 70 18 0.0 0.0 0.00 0.00 0.00 84 1012.6
20260905033025 71 23 0.0 0.0 0.00 0.00 0.00 83 1012.6
20260905031536 72 68 0.0 0.0 0.00 0.00 0.00 81 1012.4
20260905024603 73 46 0.0 0.0 0.00 0.00 0.00 80 1012.3
20260905023051 74 18 0.0 0.0 0.00 0.00 0.00 79 1012.0
20260905021546 75 27 0.0 0.0 0.00 0.00 0.00 79 1011.9
20260905020044 75 40 0.0 0.0 0.00 0.00 0.00 78 1011.7
20260905014543 76 30 0.0 0.0 0.00 0.00 0.00 78 1011.5
20260905013052 77 24 0.0 0.0 0.00 0.00 0.00 76 1011.6
20260905011536 77 14 0.0 0.0 0.00 0.00 0.00 75 1011.4
20260905010035 78 355 0.0 0.0 0.00 0.00 0.00 73 1011.3
20260905004534 80 355 0.0 0.0 0.00 0.00 0.00 72 1011.2
20260905003030 81 29 0.0 0.0 0.00 0.00 0.00 71 1011.1
20260905001529 82 29 0.0 0.0 0.00 0.00 0.00 69 1011.0
20260905000030 82 29 0.0 0.0 0.00 0.00 0.00 67 1010.8
20260904234529 82 30 0.0 0.0 0.00 0.00 0.00 67 1010.7
20260904233056 83 26 0.0 0.0 0.00 0.00 0.00 66 1010.8
20260904231555 83 360 0.0 0.0 0.00 0.00 0.00 67 1010.7
20260904230105 83 18 0.0 0.0 0.00 0.00 0.00 67 1010.5
20260904224551 83 347 0.0 0.0 0.00 0.00 0.00 68 1010.4
20260904223105 83 19 0.0 0.0 0.00 0.00 0.00 68 1010.2
20260904221553 83 343 0.0 0.0 0.00 0.00 0.00 69 1010.2
20260904220016 82 344 0.0 0.0 0.00 0.00 0.00 70 1010.0
20260904214515 83 5 0.0 0.0 0.00 0.00 0.00 70 1010.0
20260904213010 82 41 0.0 0.0 0.00 0.00 0.00 71 1010.0
20260904211507 82 14 0.0 0.0 0.00 0.00 0.00 72 1009.9
20260904210006 82 360 0.0 0.0 0.00 0.00 0.00 72 1010.1
20260904204503 81 360 0.0 0.0 0.00 0.00 0.00 73 1010.1
20260904203032 80 342 0.0 0.0 0.00 0.00 0.00 74 1010.0